Location: Anumalkud?ru
(16.4847°N, 80.6636°E)
Time: 14:55:00
(UTC+00:00)

Cosmos 2333 Rocket - Pass Details

Date: 11 April 2026
Orbit: 842 x 860 km, 70.8° (Epoch: 11 May)

Event Time Altitude Azimuth Distance (km) Brightness Sun altitude
Rises 23:34:26 0° 346° (NNW) 3,397 5.3 -12.6°
Reaches altitude 10° 23:36:53 10° 348° (NNW) 2,463 4.6 -12.0°
Maximum altitude 23:42:32 73° 73° (ENE) 887 2.5 -10.7°
Drops below altitude 10° 23:48:11 10° 157° (SSE) 2,472 4.8 -9.4°
Sets 23:50:39 0° 159° (SSE) 3,410 5.5 -8.8°
